When you browse on this site, cookies collect data to enhance your experience and personalize the content and advertising you see.
Visit our Privacy Policy to learn more. By continuing to use the site, you agree to this use of cookies and data.
  • Em Portugal
  • Lista de países
  • Para 7 dias
  • Temperatura da água
  • Mapas de satélite
  • Mapa do tempo
  • Widgets de tempo
  • user-avatar
    Iniciar Sessão

    Previsão horária em Kandi

    Hoje, 17 Dezembro, Segunda-feira

    Tempo Temperatura Precipitação Vento Pressão Humidade
    00:00 +27°C° 0 mm 1 m/s 739 mmHg 16%
    01:00 +27°C° 0 mm 1 m/s 739 mmHg 17%
    02:00 +26°C° 0 mm 2 m/s 739 mmHg 17%
    03:00 +26°C° 0 mm 2 m/s 738 mmHg 18%
    04:00 +25°C° 0 mm 2 m/s 739 mmHg 18%
    05:00 +25°C° 0 mm 2 m/s 739 mmHg 19%
    06:00 +24°C° 0 mm 2 m/s 739 mmHg 20%
    07:00 +26°C° 0 mm 3 m/s 739 mmHg 17%
    08:00 +29°C° 0 mm 3 m/s 739 mmHg 15%
    09:00 +32°C° 0 mm 4 m/s 740 mmHg 12%
    10:00 +34°C° 0 mm 4 m/s 739 mmHg 11%
    11:00 +36°C° 0 mm 3 m/s 739 mmHg 10%
    12:00 +38°C° 0 mm 3 m/s 739 mmHg 9%
    13:00 +38°C° 0 mm 3 m/s 739 mmHg 9%
    14:00 +39°C° 0 mm 3 m/s 738 mmHg 8%
    15:00 +39°C° 0 mm 2 m/s 737 mmHg 8%
    16:00 +37°C° 0 mm 2 m/s 738 mmHg 9%
    17:00 +35°C° 0 mm 2 m/s 738 mmHg 10%
    18:00 +32°C° 0 mm 2 m/s 738 mmHg 12%
    19:00 +31°C° 0 mm 2 m/s 738 mmHg 12%
    20:00 +30°C° 0 mm 2 m/s 739 mmHg 13%
    21:00 +29°C° 0 mm 2 m/s 739 mmHg 13%
    22:00 +28°C° 0 mm 2 m/s 739 mmHg 13%
    23:00 +28°C° 0 mm 2 m/s 739 mmHg 14%

    Amanhã, 18 Dezembro, Terça-feira

    Tempo Temperatura Precipitação Vento Pressão Humidade
    00:00 +27°C° 0 mm 2 m/s 739 mmHg 14%
    01:00 +26°C° 0 mm 2 m/s 739 mmHg 14%
    02:00 +26°C° 0 mm 2 m/s 738 mmHg 14%
    03:00 +25°C° 0 mm 3 m/s 738 mmHg 15%
    04:00 +24°C° 0 mm 3 m/s 738 mmHg 15%
    05:00 +24°C° 0 mm 2 m/s 739 mmHg 16%
    06:00 +23°C° 0 mm 2 m/s 739 mmHg 16%
    07:00 +25°C° 0 mm 3 m/s 739 mmHg 15%
    08:00 +27°C° 0 mm 3 m/s 740 mmHg 13%
    09:00 +29°C° 0 mm 3 m/s 740 mmHg 12%
    10:00 +31°C° 0 mm 3 m/s 740 mmHg 11%
    11:00 +35°C° 0 mm 3 m/s 740 mmHg 9%
    12:00 +37°C° 0 mm 3 m/s 739 mmHg 8%
    13:00 +38°C° 0 mm 3 m/s 738 mmHg 8%
    14:00 +38°C° 0 mm 3 m/s 738 mmHg 8%
    15:00 +39°C° 0 mm 3 m/s 737 mmHg 8%
    16:00 +37°C° 0 mm 2 m/s 737 mmHg 9%
    17:00 +35°C° 0 mm 2 m/s 737 mmHg 10%
    18:00 +32°C° 0 mm 2 m/s 738 mmHg 11%
    19:00 +31°C° 0 mm 2 m/s 738 mmHg 12%
    20:00 +30°C° 0 mm 2 m/s 739 mmHg 13%
    21:00 +29°C° 0 mm 2 m/s 739 mmHg 13%
    22:00 +28°C° 0 mm 2 m/s 739 mmHg 14%
    23:00 +27°C° 0 mm 2 m/s 739 mmHg 15%

    Depois de amanhã, 19 Dezembro, Quarta-feira

    Tempo Temperatura Precipitação Vento Pressão Humidade
    00:00 +27°C° 0 mm 2 m/s 739 mmHg 15%
    01:00 +26°C° 0 mm 2 m/s 739 mmHg 16%
    02:00 +25°C° 0 mm 2 m/s 738 mmHg 16%
    03:00 +25°C° 0 mm 2 m/s 738 mmHg 17%
    04:00 +24°C° 0 mm 2 m/s 738 mmHg 17%
    05:00 +24°C° 0 mm 2 m/s 738 mmHg 18%
    06:00 +23°C° 0 mm 2 m/s 739 mmHg 18%
    07:00 +25°C° 0 mm 2 m/s 739 mmHg 16%
    08:00 +27°C° 0 mm 3 m/s 740 mmHg 14%
    09:00 +29°C° 0 mm 3 m/s 741 mmHg 12%
    10:00 +33°C° 0 mm 3 m/s 740 mmHg 11%
    11:00 +35°C° 0 mm 3 m/s 739 mmHg 10%
    12:00 +37°C° 0 mm 3 m/s 739 mmHg 9%
    13:00 +38°C° 0 mm 2 m/s 738 mmHg 8%
    14:00 +38°C° 0 mm 2 m/s 737 mmHg 8%
    15:00 +39°C° 0 mm 2 m/s 737 mmHg 8%
    16:00 +37°C° 0 mm 2 m/s 737 mmHg 9%
    17:00 +35°C° 0 mm 2 m/s 737 mmHg 11%
    18:00 +32°C° 0 mm 1 m/s 737 mmHg 12%
    19:00 +31°C° 0 mm 2 m/s 738 mmHg 13%
    20:00 +30°C° 0 mm 2 m/s 738 mmHg 14%
    21:00 +29°C° 0 mm 2 m/s 739 mmHg 14%
    22:00 +28°C° 0 mm 2 m/s 739 mmHg 15%
    23:00 +28°C° 0 mm 2 m/s 739 mmHg 15%

    20 Dezembro, Quinta-feira

    Tempo Temperatura Precipitação Vento Pressão Humidade
    00:00 +27°C° 0 mm 2 m/s 738 mmHg 16%
    01:00 +26°C° 0 mm 2 m/s 738 mmHg 16%
    02:00 +26°C° 0 mm 2 m/s 738 mmHg 16%
    03:00 +25°C° 0 mm 2 m/s 738 mmHg 17%
    04:00 +24°C° 0 mm 2 m/s 738 mmHg 17%
    05:00 +24°C° 0 mm 2 m/s 738 mmHg 17%
    06:00 +23°C° 0 mm 2 m/s 738 mmHg 17%
    07:00 +25°C° 0 mm 3 m/s 739 mmHg 16%
    08:00 +27°C° 0 mm 3 m/s 740 mmHg 14%
    09:00 +29°C° 0 mm 3 m/s 740 mmHg 12%
    10:00 +33°C° 0 mm 3 m/s 740 mmHg 11%
    11:00 +35°C° 0 mm 3 m/s 739 mmHg 10%
    12:00 +37°C° 0 mm 3 m/s 738 mmHg 8%
    13:00 +38°C° 0 mm 3 m/s 738 mmHg 8%
    14:00 +38°C° 0 mm 2 m/s 737 mmHg 8%
    15:00 +39°C° 0 mm 2 m/s 736 mmHg 8%
    16:00 +37°C° 0 mm 2 m/s 736 mmHg 9%
    17:00 +35°C° 0 mm 2 m/s 737 mmHg 10%
    18:00 +32°C° 0 mm 1 m/s 737 mmHg 11%
    19:00 +31°C° 0 mm 2 m/s 738 mmHg 12%
    20:00 +30°C° 0 mm 2 m/s 738 mmHg 12%
    21:00 +29°C° 0 mm 2 m/s 739 mmHg 13%
    22:00 +28°C° 0 mm 2 m/s 739 mmHg 13%
    23:00 +27°C° 0 mm 2 m/s 738 mmHg 14%

    21 Dezembro, Sexta-feira

    Tempo Temperatura Precipitação Vento Pressão Humidade
    00:00 +27°C° 0 mm 2 m/s 738 mmHg 14%
    01:00 +26°C° 0 mm 2 m/s 738 mmHg 15%
    02:00 +25°C° 0 mm 2 m/s 738 mmHg 15%
    03:00 +25°C° 0 mm 2 m/s 737 mmHg 16%
    04:00 +24°C° 0 mm 2 m/s 738 mmHg 17%
    05:00 +24°C° 0 mm 2 m/s 738 mmHg 18%
    06:00 +23°C° 0 mm 2 m/s 738 mmHg 19%
    07:00 +25°C° 0 mm 3 m/s 739 mmHg 17%
    08:00 +27°C° 0 mm 3 m/s 740 mmHg 16%
    09:00 +29°C° 0 mm 4 m/s 740 mmHg 14%
    10:00 +31°C° 0 mm 3 m/s 739 mmHg 13%
    11:00 +35°C° 0 mm 3 m/s 739 mmHg 11%
    12:00 +37°C° 0 mm 3 m/s 738 mmHg 9%
    13:00 +37°C° 0 mm 3 m/s 737 mmHg 9%
    14:00 +38°C° 0 mm 3 m/s 737 mmHg 9%
    15:00 +38°C° 0 mm 2 m/s 736 mmHg 8%
    16:00 +36°C° 0 mm 2 m/s 736 mmHg 9%
    17:00 +34°C° 0 mm 2 m/s 737 mmHg 10%
    18:00 +31°C° 0 mm 2 m/s 737 mmHg 11%
    19:00 +30°C° 0 mm 2 m/s 737 mmHg 12%
    20:00 +29°C° 0 mm 2 m/s 738 mmHg 13%
    21:00 +28°C° 0 mm 2 m/s 738 mmHg 13%
    22:00 +28°C° 0 mm 2 m/s 738 mmHg 14%
    23:00 +27°C° 0 mm 3 m/s 738 mmHg 15%

    22 Dezembro, Sábado

    Tempo Temperatura Precipitação Vento Pressão Humidade
    00:00 +26°C° 0 mm 3 m/s 738 mmHg 16%
    01:00 +26°C° 0 mm 3 m/s 737 mmHg 17%
    02:00 +25°C° 0 mm 3 m/s 737 mmHg 19%
    03:00 +24°C° 0 mm 3 m/s 737 mmHg 20%
    04:00 +24°C° 0 mm 3 m/s 737 mmHg 20%
    05:00 +22°C° 0 mm 3 m/s 738 mmHg 21%
    06:00 +22°C° 0 mm 3 m/s 738 mmHg 21%
    07:00 +25°C° 0 mm 3 m/s 739 mmHg 19%
    08:00 +26°C° 0 mm 3 m/s 739 mmHg 17%
    09:00 +28°C° 0 mm 4 m/s 740 mmHg 15%
    10:00 +30°C° 0 mm 3 m/s 739 mmHg 14%
    11:00 +33°C° 0 mm 3 m/s 738 mmHg 12%
    12:00 +36°C° 0 mm 3 m/s 738 mmHg 11%
    13:00 +36°C° 0 mm 3 m/s 737 mmHg 10%
    14:00 +37°C° 0 mm 2 m/s 736 mmHg 9%
    15:00 +37°C° 0 mm 2 m/s 736 mmHg 9%
    16:00 +35°C° 0 mm 2 m/s 736 mmHg 10%
    17:00 +32°C° 0 mm 2 m/s 736 mmHg 11%
    18:00 +31°C° 0 mm 2 m/s 736 mmHg 12%
    19:00 +30°C° 0 mm 2 m/s 737 mmHg 13%
    20:00 +29°C° 0 mm 2 m/s 737 mmHg 13%
    21:00 +28°C° 0 mm 2 m/s 738 mmHg 14%
    22:00 +27°C° 0 mm 2 m/s 737 mmHg 14%
    23:00 +26°C° 0 mm 3 m/s 737 mmHg 15%
    Mostrar mais